AZU4193 SBGR-SBRJ

Flight info

Callsign AZU4193
Flight time 1h 8m
Altitude 27000
Route NIBRU UZ171 KEVUN
Aircraft E195/M-SDE3GILORVW/S

Departure

Time 2026-05-05 00:20
Airport São Paulo/Guarulhos–Governor André Franco Montoro International Airport (SBGR)

Arrival

Time 2026-05-05 01:29
Airport Santos Dumont Airport (SBRJ)
Time Latitude Longitude Altitude Speed Heading
2026-05-04 23:55 -23.42985 -46.48894 2465 ft 0 kts 275°
2026-05-05 00:09 -23.42986 -46.48888 2465 ft 2 kts 276°
2026-05-05 00:09 -23.42988 -46.48872 2465 ft 2 kts 275°
2026-05-05 00:10 -23.42989 -46.48856 2465 ft 2 kts 275°
2026-05-05 00:10 -23.42991 -46.48840 2465 ft 2 kts 276°
2026-05-05 00:10 -23.42992 -46.48829 2465 ft 2 kts 269°
2026-05-05 00:10 -23.42987 -46.48814 2465 ft 2 kts 230°
2026-05-05 00:11 -23.42975 -46.48804 2465 ft 2 kts 198°
2026-05-05 00:11 -23.42967 -46.48803 2465 ft 1 kts 180°
2026-05-05 00:11 -23.42963 -46.48803 2465 ft 0 kts 185°
2026-05-05 00:13 -23.42974 -46.48804 2465 ft 3 kts 185°
2026-05-05 00:14 -23.43010 -46.48807 2465 ft 6 kts 185°
2026-05-05 00:14 -23.43070 -46.48813 2465 ft 10 kts 185°
2026-05-05 00:14 -23.43152 -46.48819 2465 ft 7 kts 166°
2026-05-05 00:14 -23.43167 -46.48763 2465 ft 9 kts 92°
2026-05-05 00:15 -23.43173 -46.48678 2465 ft 12 kts 95°
2026-05-05 00:15 -23.43183 -46.48571 2465 ft 15 kts 96°
2026-05-05 00:15 -23.43204 -46.48449 2465 ft 15 kts 134°
2026-05-05 00:15 -23.43288 -46.48407 2465 ft 0 kts 162°
2026-05-05 00:16 -23.43289 -46.48407 2465 ft 0 kts 162°
2026-05-05 00:16 -23.43299 -46.48403 2465 ft 3 kts 162°
2026-05-05 00:16 -23.43339 -46.48390 2465 ft 9 kts 162°
2026-05-05 00:17 -23.43421 -46.48358 2465 ft 12 kts 138°
2026-05-05 00:17 -23.43418 -46.48305 2465 ft 0 kts 72°
2026-05-05 00:19 -23.43416 -46.48296 2465 ft 7 kts 72°
2026-05-05 00:19 -23.43331 -46.47981 2465 ft 79 kts 74°
2026-05-05 00:20 -23.43117 -46.47195 2466 ft 134 kts 75°
2026-05-05 00:20 -23.42814 -46.46066 2513 ft 170 kts 74°
2026-05-05 00:20 -23.42459 -46.44815 2884 ft 180 kts 72°
2026-05-05 00:20 -23.42058 -46.43496 3406 ft 185 kts 72°
2026-05-05 00:21 -23.41669 -46.42162 4090 ft 191 kts 72°
2026-05-05 00:21 -23.41243 -46.40693 4467 ft 217 kts 71°
2026-05-05 00:21 -23.40765 -46.39036 5051 ft 234 kts 71°
2026-05-05 00:21 -23.40275 -46.37333 5815 ft 241 kts 71°
2026-05-05 00:22 -23.40220 -46.35487 6458 ft 255 kts 104°
2026-05-05 00:22 -23.40804 -46.33639 7216 ft 261 kts 109°
2026-05-05 00:22 -23.41439 -46.31708 7708 ft 282 kts 109°
2026-05-05 00:22 -23.42122 -46.29628 8351 ft 296 kts 109°
2026-05-05 00:23 -23.42817 -46.27505 9204 ft 300 kts 110°
2026-05-05 00:23 -23.43514 -46.25373 10044 ft 294 kts 110°
2026-05-05 00:23 -23.44043 -46.23186 10296 ft 308 kts 101°
2026-05-05 00:23 -23.44445 -46.20850 10952 ft 317 kts 101°
2026-05-05 00:24 -23.44857 -46.18472 11718 ft 322 kts 101°
2026-05-05 00:24 -23.45277 -46.16054 12381 ft 330 kts 101°
2026-05-05 00:24 -23.45708 -46.13571 13016 ft 336 kts 101°
2026-05-05 00:24 -23.46146 -46.11048 13195 ft 341 kts 101°
2026-05-05 00:25 -23.46594 -46.08462 13222 ft 342 kts 101°
2026-05-05 00:25 -23.47037 -46.05901 13230 ft 342 kts 101°
2026-05-05 00:25 -23.47477 -46.03356 13232 ft 342 kts 101°
2026-05-05 00:25 -23.47919 -46.00796 13227 ft 342 kts 101°
2026-05-05 00:26 -23.48357 -45.98258 13224 ft 343 kts 101°
2026-05-05 00:26 -23.48802 -45.95680 13230 ft 342 kts 101°
2026-05-05 00:26 -23.49238 -45.93150 13240 ft 346 kts 101°
2026-05-05 00:26 -23.49706 -45.90494 13716 ft 361 kts 102°
2026-05-05 00:27 -23.50181 -45.87789 14638 ft 360 kts 102°
2026-05-05 00:27 -23.50647 -45.85130 15561 ft 358 kts 102°
2026-05-05 00:27 -23.51117 -45.82455 16360 ft 360 kts 102°
2026-05-05 00:27 -23.51592 -45.79745 17016 ft 365 kts 102°
2026-05-05 00:28 -23.52070 -45.77020 17626 ft 371 kts 102°
2026-05-05 00:28 -23.52555 -45.74245 18227 ft 376 kts 102°
2026-05-05 00:28 -23.53050 -45.71410 18882 ft 380 kts 102°
2026-05-05 00:28 -23.53544 -45.68579 19516 ft 384 kts 103°
2026-05-05 00:29 -23.54040 -45.65735 20139 ft 387 kts 103°
2026-05-05 00:29 -23.54546 -45.62825 20745 ft 390 kts 103°
2026-05-05 00:29 -23.55051 -45.59928 21337 ft 394 kts 103°
2026-05-05 00:29 -23.55561 -45.56988 21904 ft 397 kts 103°
2026-05-05 00:30 -23.56070 -45.54054 22457 ft 401 kts 103°
2026-05-05 00:30 -23.56589 -45.51063 23003 ft 404 kts 103°
2026-05-05 00:30 -23.57086 -45.48003 23526 ft 409 kts 97°
2026-05-05 00:30 -23.56867 -45.44950 23988 ft 416 kts 79°
2026-05-05 00:31 -23.56227 -45.41826 24473 ft 420 kts 78°
2026-05-05 00:31 -23.55578 -45.38735 24944 ft 424 kts 78°
2026-05-05 00:31 -23.54914 -45.35593 25428 ft 428 kts 78°
2026-05-05 00:31 -23.54243 -45.32423 25878 ft 431 kts 77°
2026-05-05 00:32 -23.53555 -45.29181 26316 ft 435 kts 77°
2026-05-05 00:32 -23.52867 -45.25940 26740 ft 439 kts 77°
2026-05-05 00:32 -23.52191 -45.22760 26828 ft 440 kts 77°
2026-05-05 00:32 -23.51492 -45.19479 26818 ft 438 kts 77°
2026-05-05 00:33 -23.50802 -45.16240 26806 ft 439 kts 77°
2026-05-05 00:33 -23.50111 -45.12997 26815 ft 440 kts 77°
2026-05-05 00:33 -23.49419 -45.09759 26806 ft 441 kts 77°
2026-05-05 00:33 -23.48722 -45.06498 26806 ft 440 kts 77°
2026-05-05 00:34 -23.48037 -45.03294 26763 ft 422 kts 77°
2026-05-05 00:34 -23.47387 -45.00260 26526 ft 415 kts 77°
2026-05-05 00:34 -23.46713 -44.97118 26172 ft 434 kts 77°
2026-05-05 00:34 -23.46012 -44.93891 25811 ft 435 kts 77°
2026-05-05 00:35 -23.45307 -44.90711 25436 ft 431 kts 77°
2026-05-05 00:35 -23.44610 -44.87566 25057 ft 426 kts 77°
2026-05-05 00:35 -23.43922 -44.84468 24678 ft 422 kts 77°
2026-05-05 00:35 -23.43235 -44.81377 24301 ft 418 kts 77°
2026-05-05 00:36 -23.42554 -44.78315 23921 ft 415 kts 77°
2026-05-05 00:36 -23.41873 -44.75258 23541 ft 413 kts 77°
2026-05-05 00:36 -23.41199 -44.72231 23167 ft 410 kts 77°
2026-05-05 00:36 -23.40534 -44.69252 22795 ft 407 kts 77°
2026-05-05 00:37 -23.39860 -44.66236 22427 ft 405 kts 76°
2026-05-05 00:37 -23.39197 -44.63269 22057 ft 403 kts 76°
2026-05-05 00:37 -23.38538 -44.60321 21684 ft 401 kts 76°
2026-05-05 00:37 -23.37882 -44.57392 21216 ft 399 kts 76°
2026-05-05 00:38 -23.37228 -44.54475 20756 ft 396 kts 76°
2026-05-05 00:38 -23.36578 -44.51578 20289 ft 392 kts 76°
2026-05-05 00:38 -23.35926 -44.48674 19819 ft 389 kts 76°
2026-05-05 00:38 -23.35285 -44.45824 19363 ft 386 kts 76°
2026-05-05 00:39 -23.34648 -44.43013 18910 ft 383 kts 74°
2026-05-05 00:39 -23.33664 -44.40341 18459 ft 380 kts 64°
2026-05-05 00:39 -23.32553 -44.37752 18008 ft 378 kts 64°
2026-05-05 00:39 -23.31450 -44.35180 17559 ft 375 kts 64°
2026-05-05 00:40 -23.30331 -44.32578 17078 ft 370 kts 64°
2026-05-05 00:40 -23.29216 -44.29982 16480 ft 365 kts 64°
2026-05-05 00:40 -23.28140 -44.27480 15929 ft 362 kts 64°
2026-05-05 00:40 -23.27080 -44.25016 15381 ft 359 kts 64°
2026-05-05 00:41 -23.26035 -44.22589 14838 ft 355 kts 64°
2026-05-05 00:41 -23.24988 -44.20159 14280 ft 351 kts 64°
2026-05-05 00:41 -23.23955 -44.17762 13730 ft 346 kts 64°
2026-05-05 00:41 -23.22955 -44.15443 13182 ft 341 kts 64°
2026-05-05 00:42 -23.21943 -44.13095 12632 ft 338 kts 64°
2026-05-05 00:42 -23.20955 -44.10807 12090 ft 335 kts 64°
2026-05-05 00:42 -23.19971 -44.08528 11529 ft 329 kts 64°
2026-05-05 00:42 -23.18974 -44.06340 10975 ft 321 kts 63°
2026-05-05 00:43 -23.17987 -44.04192 10412 ft 312 kts 63°
2026-05-05 00:43 -23.17032 -44.02116 9846 ft 303 kts 63°
2026-05-05 00:43 -23.16106 -44.00102 9517 ft 289 kts 63°
2026-05-05 00:43 -23.15251 -43.98143 9580 ft 292 kts 65°
2026-05-05 00:44 -23.14390 -43.96128 9611 ft 295 kts 65°
2026-05-05 00:44 -23.13522 -43.94097 9619 ft 296 kts 65°
2026-05-05 00:44 -23.12651 -43.92059 9620 ft 297 kts 65°
2026-05-05 00:44 -23.11773 -43.90007 9620 ft 297 kts 65°
2026-05-05 00:45 -23.10907 -43.87985 9619 ft 297 kts 65°
2026-05-05 00:45 -23.10038 -43.85955 9618 ft 297 kts 65°
2026-05-05 00:45 -23.09166 -43.83916 9618 ft 297 kts 65°
2026-05-05 00:45 -23.08286 -43.81864 9619 ft 298 kts 65°
2026-05-05 00:46 -23.07417 -43.79835 9529 ft 300 kts 65°
2026-05-05 00:46 -23.06530 -43.77768 9240 ft 299 kts 65°
2026-05-05 00:46 -23.05653 -43.75723 8918 ft 296 kts 65°
2026-05-05 00:46 -23.04797 -43.73728 8597 ft 293 kts 65°
2026-05-05 00:47 -23.03939 -43.71731 8276 ft 289 kts 65°
2026-05-05 00:47 -23.03086 -43.69750 8022 ft 285 kts 64°
2026-05-05 00:47 -23.02240 -43.67814 7821 ft 286 kts 65°
2026-05-05 00:47 -23.01378 -43.65842 7519 ft 286 kts 64°
2026-05-05 00:48 -23.00527 -43.63896 7205 ft 284 kts 64°
2026-05-05 00:48 -22.99682 -43.61967 7044 ft 280 kts 64°
2026-05-05 00:48 -22.98848 -43.60069 7055 ft 280 kts 64°
2026-05-05 00:48 -22.98001 -43.58143 7040 ft 280 kts 64°
2026-05-05 00:49 -22.97174 -43.56260 6813 ft 271 kts 64°
2026-05-05 00:49 -22.96369 -43.54432 6536 ft 264 kts 64°
2026-05-05 00:49 -22.95590 -43.52661 6256 ft 258 kts 64°
2026-05-05 00:49 -22.94824 -43.50916 6043 ft 249 kts 64°
2026-05-05 00:50 -22.94123 -43.49262 6013 ft 233 kts 64°
2026-05-05 00:50 -22.93451 -43.47675 5859 ft 229 kts 64°
2026-05-05 00:50 -22.92793 -43.46122 5630 ft 222 kts 65°
2026-05-05 00:50 -22.92154 -43.44613 5316 ft 219 kts 65°
2026-05-05 00:51 -22.91522 -43.43121 5014 ft 215 kts 65°
2026-05-05 00:51 -22.90928 -43.41719 4937 ft 200 kts 64°
2026-05-05 00:51 -22.90359 -43.40378 4772 ft 190 kts 64°
2026-05-05 00:51 -22.89809 -43.39081 4567 ft 183 kts 64°
2026-05-05 00:52 -22.89290 -43.37857 4370 ft 176 kts 64°
2026-05-05 00:52 -22.88779 -43.36653 4175 ft 169 kts 64°
2026-05-05 00:52 -22.88352 -43.35526 3991 ft 167 kts 81°
2026-05-05 00:52 -22.88332 -43.34257 3867 ft 168 kts 89°
2026-05-05 00:53 -22.88364 -43.33012 3693 ft 170 kts 89°
2026-05-05 00:53 -22.88401 -43.31744 3483 ft 171 kts 89°
2026-05-05 00:53 -22.88440 -43.30447 3256 ft 169 kts 89°
2026-05-05 00:53 -22.88480 -43.29197 3118 ft 158 kts 89°
2026-05-05 00:54 -22.88517 -43.28047 2846 ft 151 kts 89°
2026-05-05 00:54 -22.88554 -43.26917 2627 ft 145 kts 89°
2026-05-05 00:54 -22.88802 -43.25869 2410 ft 142 kts 107°
2026-05-05 00:54 -22.89146 -43.24927 2223 ft 126 kts 106°
2026-05-05 00:55 -22.89463 -43.24063 2024 ft 120 kts 106°
2026-05-05 00:55 -22.89769 -43.23228 1901 ft 121 kts 106°
2026-05-05 00:55 -22.90082 -43.22375 1773 ft 122 kts 106°
2026-05-05 00:55 -22.90452 -43.21540 1614 ft 125 kts 119°
2026-05-05 00:56 -22.90971 -43.20774 1454 ft 124 kts 121°
2026-05-05 00:56 -22.91613 -43.20151 1276 ft 129 kts 152°
2026-05-05 00:56 -22.92457 -43.19774 1135 ft 129 kts 149°
2026-05-05 00:56 -22.93041 -43.19099 949 ft 121 kts 106°
2026-05-05 00:57 -22.93247 -43.18225 899 ft 119 kts 97°
2026-05-05 00:57 -22.93254 -43.17336 683 ft 120 kts 69°
2026-05-05 00:57 -22.92779 -43.16608 520 ft 119 kts 41°
2026-05-05 00:57 -22.91984 -43.16325 362 ft 125 kts
2026-05-05 00:58 -22.91123 -43.16372 350 ft 127 kts 359°
2026-05-05 00:58 -22.90245 -43.16427 684 ft 128 kts 359°
2026-05-05 00:58 -22.89351 -43.16356 821 ft 140 kts 26°
2026-05-05 00:58 -22.88654 -43.15536 913 ft 166 kts 70°
2026-05-05 00:59 -22.88414 -43.14261 1277 ft 177 kts 75°
2026-05-05 00:59 -22.88056 -43.12989 1544 ft 178 kts 69°
2026-05-05 00:59 -22.87612 -43.11731 1806 ft 179 kts 72°
2026-05-05 00:59 -22.87818 -43.10421 2139 ft 187 kts 120°
2026-05-05 01:00 -22.88679 -43.09370 2673 ft 190 kts 128°
2026-05-05 01:00 -22.89519 -43.08219 3183 ft 192 kts 123°
2026-05-05 01:00 -22.90279 -43.07026 3673 ft 196 kts 121°
2026-05-05 01:00 -22.91008 -43.05776 4168 ft 199 kts 120°
2026-05-05 01:01 -22.91713 -43.04503 4662 ft 199 kts 119°
2026-05-05 01:01 -22.92406 -43.03189 5156 ft 199 kts 118°
2026-05-05 01:01 -22.93100 -43.01840 4933 ft 214 kts 118°
2026-05-05 01:01 -22.93794 -43.00489 4986 ft 197 kts 118°
2026-05-05 01:02 -22.94455 -42.99201 5168 ft 198 kts 118°
2026-05-05 01:02 -22.95138 -42.97871 5446 ft 201 kts 118°
2026-05-05 01:02 -22.95822 -42.96537 5486 ft 207 kts 118°
2026-05-05 01:02 -22.96539 -42.95140 5494 ft 211 kts 118°
2026-05-05 01:03 -22.97259 -42.93734 5530 ft 212 kts 118°
2026-05-05 01:03 -22.97970 -42.92347 5537 ft 212 kts 118°
2026-05-05 01:03 -22.98692 -42.90937 5528 ft 211 kts 118°
2026-05-05 01:03 -22.99403 -42.89550 5528 ft 211 kts 118°
2026-05-05 01:04 -23.00118 -42.88153 5531 ft 212 kts 118°
2026-05-05 01:04 -23.01547 -42.85361 5537 ft 211 kts 118°
2026-05-05 01:04 -23.02263 -42.83962 5520 ft 210 kts 118°
2026-05-05 01:05 -23.02977 -42.82565 5516 ft 210 kts 118°
2026-05-05 01:05 -23.03661 -42.81177 5508 ft 211 kts 110°
2026-05-05 01:05 -23.03630 -42.79630 5517 ft 209 kts 64°
2026-05-05 01:05 -23.02613 -42.78576 5532 ft 207 kts 19°
2026-05-05 01:06 -23.01203 -42.78612 5536 ft 206 kts 334°
2026-05-05 01:06 -23.00242 -42.79728 5534 ft 206 kts 289°
2026-05-05 01:06 -23.00303 -42.81245 5532 ft 209 kts 244°
2026-05-05 01:06 -23.01356 -42.82297 5535 ft 212 kts 200°
2026-05-05 01:07 -23.02803 -42.82257 5535 ft 213 kts 155°
2026-05-05 01:07 -23.03812 -42.81146 5532 ft 210 kts 110°
2026-05-05 01:07 -23.03805 -42.79597 5533 ft 208 kts 65°
2026-05-05 01:07 -23.02803 -42.78527 5534 ft 207 kts 20°
2026-05-05 01:08 -23.01391 -42.78541 5536 ft 207 kts 335°
2026-05-05 01:08 -23.00418 -42.79621 5534 ft 207 kts 290°
2026-05-05 01:08 -23.00447 -42.81161 5532 ft 208 kts 245°
2026-05-05 01:08 -23.01478 -42.82220 5534 ft 211 kts 200°
2026-05-05 01:09 -23.02908 -42.82195 5533 ft 211 kts 155°
2026-05-05 01:09 -23.03922 -42.81090 5532 ft 212 kts 111°
2026-05-05 01:09 -23.03935 -42.79536 5533 ft 210 kts 66°
2026-05-05 01:09 -23.02956 -42.78440 5534 ft 207 kts 21°
2026-05-05 01:10 -23.01554 -42.78418 5536 ft 205 kts 336°
2026-05-05 01:10 -23.00558 -42.79489 5534 ft 206 kts 291°
2026-05-05 01:10 -23.00576 -42.81021 5532 ft 209 kts 246°
2026-05-05 01:10 -23.01598 -42.82095 5535 ft 211 kts 201°
2026-05-05 01:11 -23.03032 -42.82095 5532 ft 213 kts 156°
2026-05-05 01:11 -23.04076 -42.80996 5532 ft 212 kts 111°
2026-05-05 01:11 -23.04110 -42.79454 5533 ft 209 kts 67°
2026-05-05 01:11 -23.03129 -42.78335 5533 ft 208 kts 22°
2026-05-05 01:12 -23.01718 -42.78302 5535 ft 207 kts 337°
2026-05-05 01:12 -23.00711 -42.79345 5534 ft 207 kts 292°
2026-05-05 01:12 -23.00689 -42.80876 5532 ft 208 kts 248°
2026-05-05 01:12 -23.01688 -42.81981 5535 ft 210 kts 202°
2026-05-05 01:13 -23.03139 -42.82005 5531 ft 212 kts 157°
2026-05-05 01:13 -23.04181 -42.80941 5532 ft 212 kts 113°
2026-05-05 01:13 -23.04240 -42.79388 5533 ft 209 kts 68°
2026-05-05 01:13 -23.03284 -42.78264 5534 ft 207 kts 23°
2026-05-05 01:14 -23.01880 -42.78213 5535 ft 205 kts 338°
2026-05-05 01:14 -23.00866 -42.79273 5535 ft 207 kts 292°
2026-05-05 01:14 -23.00856 -42.80804 5533 ft 209 kts 247°
2026-05-05 01:14 -23.01843 -42.81901 5535 ft 211 kts 203°
2026-05-05 01:15 -23.03293 -42.81939 5531 ft 211 kts 158°
2026-05-05 01:15 -23.04335 -42.80887 5533 ft 211 kts 113°
2026-05-05 01:15 -23.04399 -42.79336 5533 ft 210 kts 68°
2026-05-05 01:15 -23.03437 -42.78192 5534 ft 208 kts 23°
2026-05-05 01:16 -23.02028 -42.78122 5534 ft 207 kts 338°
2026-05-05 01:16 -23.00993 -42.79150 5535 ft 207 kts 294°
2026-05-05 01:16 -23.00940 -42.80676 5532 ft 208 kts 249°
2026-05-05 01:16 -23.01913 -42.81809 5536 ft 210 kts 206°
2026-05-05 01:17 -23.03306 -42.82367 5537 ft 212 kts 200°
2026-05-05 01:17 -23.04693 -42.82888 5523 ft 211 kts 200°
2026-05-05 01:17 -23.06083 -42.83411 5519 ft 211 kts 200°
2026-05-05 01:17 -23.07443 -42.84034 5512 ft 210 kts 211°
2026-05-05 01:18 -23.08652 -42.84923 5524 ft 210 kts 221°
2026-05-05 01:18 -23.09747 -42.85984 5518 ft 210 kts 229°
2026-05-05 01:18 -23.10636 -42.87224 5521 ft 208 kts 238°
2026-05-05 01:18 -23.11336 -42.88601 5521 ft 208 kts 239°
2026-05-05 01:19 -23.12154 -42.89914 5509 ft 208 kts 234°
2026-05-05 01:19 -23.13053 -42.91137 5510 ft 208 kts 230°
2026-05-05 01:19 -23.14006 -42.92320 5515 ft 208 kts 229°
2026-05-05 01:19 -23.15005 -42.93494 5516 ft 209 kts 228°
2026-05-05 01:20 -23.16005 -42.94633 5520 ft 209 kts 227°
2026-05-05 01:20 -23.17017 -42.95770 5518 ft 209 kts 227°
2026-05-05 01:20 -23.17728 -42.97107 5498 ft 207 kts 264°
2026-05-05 01:20 -23.17464 -42.98615 5545 ft 206 kts 291°
2026-05-05 01:21 -23.16933 -43.00083 5392 ft 208 kts 292°
2026-05-05 01:21 -23.16400 -43.01546 5206 ft 207 kts 292°
2026-05-05 01:21 -23.15878 -43.02985 5012 ft 201 kts 292°
2026-05-05 01:21 -23.15373 -43.04373 4805 ft 193 kts 293°
2026-05-05 01:22 -23.14856 -43.05691 4589 ft 186 kts 302°
2026-05-05 01:22 -23.14167 -43.06842 4463 ft 177 kts 309°
2026-05-05 01:22 -23.13144 -43.07501 4598 ft 175 kts 349°
2026-05-05 01:22 -23.11951 -43.07741 4514 ft 165 kts 348°
2026-05-05 01:23 -23.10874 -43.08028 4383 ft 159 kts 345°
2026-05-05 01:23 -23.09810 -43.08364 4101 ft 157 kts 343°
2026-05-05 01:23 -23.08779 -43.08722 3899 ft 158 kts 342°
2026-05-05 01:23 -23.07737 -43.09107 3504 ft 156 kts 342°
2026-05-05 01:24 -23.06734 -43.09493 3305 ft 151 kts 342°
2026-05-05 01:24 -23.05747 -43.09881 2972 ft 149 kts 342°
2026-05-05 01:24 -23.04798 -43.10260 2658 ft 143 kts 343°
2026-05-05 01:24 -23.03867 -43.10635 2259 ft 143 kts 343°
2026-05-05 01:25 -23.02945 -43.11009 1895 ft 138 kts 344°
2026-05-05 01:25 -23.02063 -43.11369 1550 ft 131 kts 343°
2026-05-05 01:25 -23.01264 -43.11697 1463 ft 117 kts 343°
2026-05-05 01:25 -23.00499 -43.12009 1504 ft 117 kts 344°
2026-05-05 01:26 -22.99710 -43.12331 1429 ft 122 kts 344°
2026-05-05 01:26 -22.98905 -43.12658 1306 ft 123 kts 347°
2026-05-05 01:26 -22.98068 -43.12825 1186 ft 120 kts 355°
2026-05-05 01:26 -22.97246 -43.12960 1066 ft 120 kts 355°
2026-05-05 01:27 -22.96415 -43.13134 1006 ft 122 kts 339°
2026-05-05 01:27 -22.95671 -43.13617 1013 ft 126 kts 326°
2026-05-05 01:27 -22.95069 -43.14323 926 ft 127 kts 312°
2026-05-05 01:27 -22.94520 -43.15088 816 ft 129 kts 310°
2026-05-05 01:28 -22.93854 -43.15753 555 ft 129 kts 328°
2026-05-05 01:28 -22.93061 -43.16156 281 ft 125 kts 348°
2026-05-05 01:28 -22.92208 -43.16262 118 ft 123 kts
2026-05-05 01:28 -22.91340 -43.16281 26 ft 125 kts 358°
2026-05-05 01:29 -22.90778 -43.16310 26 ft 23 kts 352°
2026-05-05 01:29 -22.90763 -43.16327 26 ft 5 kts 245°
2026-05-05 01:29 -22.90780 -43.16367 26 ft 0 kts 245°
2026-05-05 01:29 -22.90797 -43.16407 26 ft 10 kts 255°
2026-05-05 01:30 -22.90799 -43.16424 26 ft 0 kts 263°
2026-05-05 01:30 -22.90799 -43.16429 26 ft 1 kts 263°
2026-05-05 01:30 -22.90801 -43.16442 26 ft 2 kts 263°
2026-05-05 01:30 -22.90803 -43.16463 26 ft 3 kts 263°
2026-05-05 01:31 -22.90806 -43.16492 26 ft 4 kts 265°
2026-05-05 01:31 -22.90808 -43.16528 27 ft 4 kts 266°
2026-05-05 01:31 -22.90810 -43.16569 27 ft 6 kts 268°
2026-05-05 01:31 -22.90812 -43.16605 27 ft 2 kts 265°
2026-05-05 01:32 -22.90813 -43.16622 27 ft 0 kts 266°